| time (UTC) | temp F | wind direction | speed MPH | gust MPH | rain 1hr in | rain 24hr in | rain mn in | humidity % | barometer mb |
| 20260506164708 | 84 | 307 | 0.0 | 0.0 | 0.00 | 0.00 | 0.00 | 1001.7 | |
| 20260506163531 | 84 | 284 | 0.0 | 0.0 | 0.00 | 0.00 | 0.00 | 1001.7 | |
| 20260506161217 | 84 | 42 | 0.0 | 0.0 | 0.00 | 0.00 | 0.00 | 1001.6 | |
| 20260506160040 | 82 | 42 | 0.0 | 0.0 | 0.00 | 0.00 | 0.00 | 1001.4 | |
| 20260506154903 | 82 | 56 | 3.0 | 0.0 | 0.00 | 0.00 | 0.00 | 1001.3 | |
| 20260506153726 | 82 | 41 | 0.0 | 0.0 | 0.00 | 0.00 | 0.00 | 1001.1 | |
| 20260506152549 | 80 | 39 | 0.0 | 0.0 | 0.00 | 0.00 | 0.00 | 1001.0 | |
| 20260506151412 | 80 | 35 | 0.0 | 0.0 | 0.00 | 0.00 | 0.00 | 1000.8 | |
| 20260506150235 | 80 | 325 | 3.0 | 0.0 | 0.00 | 0.00 | 0.00 | 1000.6 | |
| 20260506145058 | 79 | 325 | 6.0 | 0.0 | 0.00 | 0.00 | 0.00 | 1000.3 | |
| 20260506143921 | 79 | 11 | 0.0 | 0.0 | 0.00 | 0.00 | 0.00 | 1000.2 | |
| 20260506142744 | 78 | 28 | 4.0 | 0.0 | 0.00 | 0.00 | 0.00 | 1000.0 | |
| 20260506141607 | 77 | 3 | 3.0 | 0.0 | 0.00 | 0.00 | 0.00 | 1000.0 | |
| 20260506140430 | 77 | 4 | 8.0 | 0.0 | 0.00 | 0.00 | 0.00 | 999.9 | |
| 20260506135253 | 77 | 17 | 0.0 | 0.0 | 0.00 | 0.00 | 0.00 | 999.8 | |
| 20260506134116 | 76 | 11 | 4.0 | 0.0 | 0.00 | 0.00 | 0.00 | 999.8 | |
| 20260506132939 | 76 | 35 | 0.0 | 0.0 | 0.00 | 0.00 | 0.00 | 999.8 | |
| 20260506131801 | 76 | 35 | 5.0 | 0.0 | 0.00 | 0.00 | 0.00 | 999.7 | |
| 20260506130626 | 76 | 359 | 0.0 | 0.0 | 0.00 | 0.00 | 0.00 | 1009.3 | |
| 20260506125448 | 75 | 342 | 4.0 | 0.0 | 0.00 | 0.00 | 0.00 | 999.6 | |
| 20260506124310 | 75 | 349 | 3.0 | 0.0 | 0.00 | 0.00 | 0.00 | 999.6 | |
| 20260506123134 | 74 | 31 | 0.0 | 0.0 | 0.00 | 0.00 | 0.00 | 999.7 | |
| 20260506121956 | 74 | 31 | 0.0 | 0.0 | 0.00 | 0.00 | 0.00 | 999.7 | |
| 20260506120820 | 74 | 31 | 0.0 | 0.0 | 0.00 | 0.00 | 0.00 | 999.6 | |
| 20260506115642 | 74 | 31 | 0.0 | 0.0 | 0.00 | 0.00 | 0.00 | 999.6 | |
| 20260506114505 | 74 | 31 | 0.0 | 0.0 | 0.00 | 0.00 | 0.00 | 999.6 | |
| 20260506113330 | 74 | 31 | 0.0 | 0.0 | 0.00 | 0.00 | 0.00 | 999.4 | |
| 20260506112152 | 74 | 31 | 0.0 | 0.0 | 0.00 | 0.00 | 0.00 | 999.4 | |
| 20260506111015 | 74 | 31 | 0.0 | 0.0 | 0.00 | 0.00 | 0.00 | 999.4 | |
| 20260506105838 | 74 | 340 | 0.0 | 0.0 | 0.00 | 0.00 | 0.00 | 999.4 | |
| 20260506104701 | 75 | 25 | 0.0 | 0.0 | 0.00 | 0.00 | 0.00 | 999.2 | |
| 20260506102348 | 24 | 354 | 6.0 | 0.0 | 0.00 | 0.00 | 0.00 | 999.3 | |
| 20260506101210 | 76 | 359 | 3.0 | 0.0 | 0.00 | 0.00 | 0.00 | 999.3 | |
| 20260506100032 | 76 | 345 | 4.0 | 0.0 | 0.00 | 0.00 | 0.00 | 999.3 | |
| 20260506094855 | 76 | 311 | 6.0 | 0.0 | 0.00 | 0.00 | 0.00 | 999.2 | |
| 20260506092542 | 76 | 359 | 7.0 | 0.0 | 0.00 | 0.00 | 0.00 | 999.3 | |
| 20260506091406 | 76 | 24 | 3.0 | 0.0 | 0.00 | 0.00 | 0.00 | 999.5 | |
| 20260506090228 | 76 | 32 | 2.0 | 0.0 | 0.00 | 0.00 | 0.00 | 999.5 | |
| 20260506085051 | 76 | 25 | 5.0 | 0.0 | 0.00 | 0.00 | 0.00 | 999.5 | |
| 20260506083915 | 77 | 44 | 4.0 | 0.0 | 0.00 | 0.00 | 0.00 | 999.4 | |
| 20260506082738 | 77 | 13 | 5.0 | 0.0 | 0.00 | 0.00 | 0.00 | 999.5 | |
| 20260506081601 | 77 | 346 | 5.0 | 0.0 | 0.00 | 0.00 | 0.00 | 999.5 | |
| 20260506080423 | 77 | 359 | 6.0 | 0.0 | 0.00 | 0.00 | 0.00 | 999.6 | |
| 20260506072933 | 77 | 24 | 4.0 | 0.0 | 0.00 | 0.00 | 0.00 | 999.4 | |
| 20260506071756 | 77 | 24 | 3.0 | 0.0 | 0.00 | 0.00 | 0.00 | 999.5 | |
| 20260506070618 | 77 | 34 | 4.0 | 0.0 | 0.00 | 0.00 | 0.00 | 999.5 | |
| 20260506061950 | 77 | 4 | 9.0 | 0.0 | 0.00 | 0.00 | 0.00 | 999.8 | |
| 20260506060814 | 77 | 30 | 6.0 | 0.0 | 0.00 | 0.00 | 0.00 | 1000.0 | |
| 20260506051008 | 77 | 38 | 5.0 | 0.0 | 0.00 | 0.00 | 0.00 | 999.9 | |
| 20260506044655 | 77 | 38 | 6.0 | 0.0 | 0.00 | 0.00 | 0.00 | 1000.0 | |
| 20260506043517 | 77 | 60 | 7.0 | 0.0 | 0.00 | 0.00 | 0.00 | 999.8 | |
| 20260506042341 | 78 | 343 | 10.0 | 0.0 | 0.00 | 0.00 | 0.00 | 999.7 | |
| 20260506040027 | 78 | 311 | 5.0 | 0.0 | 0.00 | 0.00 | 0.00 | 999.7 | |
| 20260506034850 | 78 | 359 | 0.0 | 0.0 | 0.00 | 0.00 | 0.00 | 999.6 | |
| 20260506033713 | 78 | 319 | 7.0 | 0.0 | 0.00 | 0.00 | 0.00 | 999.3 | |
| 20260506032536 | 78 | 332 | 7.0 | 0.0 | 0.00 | 0.00 | 0.00 | 999.1 | |
| 20260506031359 | 78 | 18 | 2.0 | 0.0 | 0.00 | 0.00 | 0.00 | 998.9 | |
| 20260506030222 | 78 | 359 | 8.0 | 0.0 | 0.00 | 0.00 | 0.00 | 998.7 | |
| 20260506025045 | 79 | 352 | 9.0 | 0.0 | 0.00 | 0.00 | 0.00 | 998.4 | |
| 20260506023908 | 79 | 329 | 8.0 | 0.0 | 0.00 | 0.00 | 0.00 | 998.2 | |
| 20260506022731 | 79 | 359 | 12.0 | 0.0 | 0.00 | 0.00 | 0.00 | 998.0 | |
| 20260506021554 | 80 | 68 | 7.0 | 0.0 | 0.00 | 0.00 | 0.00 | 997.8 | |
| 20260506020419 | 80 | 359 | 6.0 | 0.0 | 0.00 | 0.00 | 0.00 | 997.8 | |
| 20260506015240 | 81 | 359 | 8.0 | 0.0 | 0.00 | 0.00 | 0.00 | 997.6 | |
| 20260506014103 | 81 | 8 | 12.0 | 0.0 | 0.00 | 0.00 | 0.00 | 997.4 | |
| 20260506012927 | 82 | 319 | 0.0 | 0.0 | 0.00 | 0.00 | 0.00 | 997.3 | |
| 20260506011748 | 82 | 359 | 7.0 | 0.0 | 0.00 | 0.00 | 0.00 | 997.1 | |
| 20260506010611 | 83 | 0 | 12.0 | 0.0 | 0.00 | 0.00 | 0.00 | 997.0 | |
| 20260506005434 | 84 | 20 | 8.0 | 0.0 | 0.00 | 0.00 | 0.00 | 996.9 | |
| 20260506004258 | 85 | 30 | 9.0 | 0.0 | 0.00 | 0.00 | 0.00 | 996.8 | |
| 20260506003120 | 86 | 352 | 9.0 | 0.0 | 0.00 | 0.00 | 0.00 | 996.5 | |
| 20260506001943 | 87 | 354 | 12.0 | 0.0 | 0.00 | 0.00 | 0.00 | 996.7 | |
| 20260506000806 | 88 | 6 | 6.0 | 0.0 | 0.00 | 0.00 | 0.00 | 996.5 | |
| 20260505235629 | 88 | 4 | 12.0 | 0.0 | 0.00 | 0.00 | 0.00 | 996.4 | |
| 20260505234452 | 89 | 39 | 4.0 | 0.0 | 0.00 | 0.00 | 0.00 | 996.2 | |
| 20260505233315 | 90 | 15 | 7.0 | 0.0 | 0.00 | 0.00 | 0.00 | 996.1 | |
| 20260505232138 | 91 | 41 | 7.0 | 0.0 | 0.00 | 0.00 | 0.00 | 996.1 | |
| 20260505231002 | 92 | 23 | 8.0 | 0.0 | 0.00 | 0.00 | 0.00 | 996.1 | |
| 20260505225825 | 92 | 52 | 9.0 | 0.0 | 0.00 | 0.00 | 0.00 | 996.1 | |
| 20260505224648 | 93 | 359 | 8.0 | 0.0 | 0.00 | 0.00 | 0.00 | 996.1 | |
| 20260505223511 | 93 | 10 | 6.0 | 0.0 | 0.00 | 0.00 | 0.00 | 996.3 | |
| 20260505222334 | 93 | 1 | 11.0 | 0.0 | 0.00 | 0.00 | 0.00 | 996.3 | |
| 20260505221157 | 94 | 6 | 6.0 | 0.0 | 0.00 | 0.00 | 0.00 | 996.4 | |
| 20260505220020 | 94 | 14 | 9.0 | 0.0 | 0.00 | 0.00 | 0.00 | 996.6 | |
| 20260505214843 | 92 | 23 | 4.0 | 0.0 | 0.00 | 0.00 | 0.00 | 996.8 | |
| 20260505213706 | 94 | 1 | 3.0 | 0.0 | 0.00 | 0.00 | 0.00 | 997.0 | |
| 20260505212529 | 94 | 7 | 4.0 | 0.0 | 0.00 | 0.00 | 0.00 | 997.1 | |
| 20260505211352 | 94 | 335 | 9.0 | 0.0 | 0.00 | 0.00 | 0.00 | 997.2 | |
| 20260505210215 | 92 | 338 | 10.0 | 0.0 | 0.00 | 0.00 | 0.00 | 997.5 | |
| 20260505205038 | 93 | 359 | 9.0 | 0.0 | 0.00 | 0.00 | 0.00 | 997.7 | |
| 20260505203901 | 93 | 339 | 7.0 | 0.0 | 0.00 | 0.00 | 0.00 | 997.8 | |
| 20260505202724 | 93 | 37 | 4.0 | 0.0 | 0.00 | 0.00 | 0.00 | 997.9 | |
| 20260505201547 | 92 | 308 | 0.0 | 0.0 | 0.00 | 0.00 | 0.00 | 998.3 | |
| 20260505200410 | 92 | 329 | 9.0 | 0.0 | 0.00 | 0.00 | 0.00 | 998.4 | |
| 20260505195233 | 90 | 267 | 0.0 | 0.0 | 0.00 | 0.00 | 0.00 | 998.5 | |
| 20260505194056 | 90 | 325 | 8.0 | 0.0 | 0.00 | 0.00 | 0.00 | 998.9 | |
| 20260505192919 | 90 | 280 | 0.0 | 0.0 | 0.00 | 0.00 | 0.00 | 999.0 | |
| 20260505191742 | 89 | 41 | 0.0 | 0.0 | 0.00 | 0.00 | 0.00 | 999.3 | |
| 20260505190605 | 89 | 349 | 0.0 | 0.0 | 0.00 | 0.00 | 0.00 | 999.5 | |
| 20260505185428 | 88 | 13 | 0.0 | 0.0 | 0.00 | 0.00 | 0.00 | 999.6 | |
| 20260505184252 | 89 | 65 | 3.0 | 0.0 | 0.00 | 0.00 | 0.00 | 999.8 | |
| 20260505183115 | 88 | 328 | 7.0 | 0.0 | 0.00 | 0.00 | 0.00 | 999.9 | |
| 20260505181937 | 89 | 24 | 0.0 | 0.0 | 0.00 | 0.00 | 0.00 | 999.9 | |
| 20260505180800 | 89 | 354 | 3.0 | 0.0 | 0.00 | 0.00 | 0.00 | 1000.1 | |
| 20260505175623 | 89 | 98 | 0.0 | 0.0 | 0.00 | 0.00 | 0.00 | 1000.3 | |
| 20260505174446 | 87 | 24 | 0.0 | 0.0 | 0.00 | 0.00 | 0.00 | 1000.4 | |
| 20260505173309 | 87 | 104 | 4.0 | 0.0 | 0.00 | 0.00 | 0.00 | 1000.5 | |
| 20260505172132 | 87 | 97 | 0.0 | 0.0 | 0.00 | 0.00 | 0.00 | 1000.6 | |
| 20260505170956 | 85 | 56 | 9.0 | 0.0 | 0.00 | 0.00 | 0.00 | 1000.6 | |
| 20260505165818 | 86 | 35 | 3.0 | 0.0 | 0.00 | 0.00 | 0.00 | 1000.6 |